EW6612 Weather Reports


time (UTC)temp
C
wind
direction
speed
KPH
gust
KPH
rain 1hr
cm
rain 24hr
cm
rain mn
cm
humidity
%
barometer
mb
20181019120417 21 5 9.7 16.1 0.00 0.03 0.03 68 1014.0
20181019115458 21 11 8.0 16.1 0.00 0.03 0.03 68 1014.0
20181019114442 21 334 8.0 17.7 0.00 0.03 0.03 70 1013.9
20181019113422 21 344 9.7 14.5 0.00 0.03 0.03 69 1014.0
20181019112503 21 9 8.0 14.5 0.00 0.03 0.03 68 1014.0
20181019111445 21 0 6.4 12.9 0.00 0.03 0.03 66 1014.0
20181019110430 21 44 6.4 12.9 0.00 0.03 0.03 66 1013.8
20181019105415 21 68 6.4 12.9 0.00 0.03 0.03 66 1013.7
20181019104458 21 91 4.8 8.0 0.00 0.03 0.03 68 1013.6
20181019103440 21 54 6.4 17.7 0.00 0.03 0.03 68 1013.7
20181019102425 21 18 8.0 14.5 0.00 0.03 0.03 68 1013.8
20181019101410 21 26 6.4 8.0 0.00 0.03 0.03 67 1014.0
20181019100447 21 347 8.0 17.7 0.00 0.03 0.03 67 1014.2
20181019095431 20 347 11.3 22.5 0.00 0.03 0.03 69 1014.3
20181019094413 20 5 9.7 19.3 0.00 0.03 0.03 72 1014.2
20181019093357 19 11 8.0 17.7 0.00 0.03 0.03 76 1014.2
20181019092444 18 314 8.0 14.5 0.03 0.03 0.03 81 1014.2
20181019091425 17 323 8.0 12.9 0.03 0.03 0.03 87 1014.0
20181019090408 17 303 4.8 12.9 0.03 0.03 0.03 89 1014.1
20181019085353 16 255 4.8 11.3 0.03 0.03 0.03 91 1014.1
20181019084437 16 311 6.4 12.9 0.03 0.03 0.03 93 1013.9
20181019083417 16 304 4.8 11.3 0.03 0.03 0.03 95 1013.7
20181019082401 16 250 1.6 4.8 0.00 0.00 0.00 95 1013.5
20181019081347 15 146 1.6 6.4 0.00 0.00 0.00 96 1013.3
20181019080427 15 214 1.6 4.8 0.00 0.00 0.00 96 1012.9
20181019075409 14 215 0.0 4.8 0.00 0.00 0.00 96 1012.8
20181019074352 13 215 4.8 9.7 0.00 0.00 0.00 96 1013.0
20181019073330 13 339 1.6 6.4 0.00 0.00 0.00 95 1012.9
20181019072312 12 71 0.0 3.2 0.00 0.00 0.00 95 1012.6
20181019071256 12 70 3.2 6.4 0.00 0.00 0.00 95 1012.5
20181019070336 12 323 3.2 6.4 0.00 0.00 0.00 96 1012.3
20181019065317 12 271 1.6 6.4 0.00 0.00 0.00 95 1012.3
20181019064302 12 328 0.0 1.6 0.00 0.00 0.00 95 1012.3
20181019063242 12 329 1.6 4.8 0.00 0.00 0.00 95 1012.4
20181019062226 12 57 1.6 6.4 0.00 0.00 0.00 96 1012.4
20181019061305 12 264 3.2 9.7 0.00 0.00 0.00 96 1012.3
20181019060251 11 66 0.0 4.8 0.00 0.00 0.00 96 1012.2
20181019055235 11 66 0.0 3.2 0.00 0.00 0.00 95 1012.0
20181019054216 11 66 1.6 4.8 0.00 0.00 0.00 95 1011.9
20181019053159 11 81 3.2 11.3 0.00 0.00 0.00 95 1011.9
20181019052146 11 299 1.6 4.8 0.00 0.00 0.00 95 1012.1
20181019051123 11 300 1.6 4.8 0.00 0.00 0.00 95 1012.1
20181019050205 10 32 1.6 4.8 0.00 0.00 0.00 95 1012.2
20181019045144 10 296 0.0 3.2 0.00 0.00 0.00 95 1012.0
20181019044120 10 296 0.0 3.2 0.00 0.00 0.00 95 1012.1
20181019043204 10 296 1.6 4.8 0.00 0.00 0.00 95 1012.2
20181019042143 10 296 1.6 6.4 0.00 0.00 0.00 95 1012.1
20181019041125 10 334 0.0 3.2 0.00 0.00 0.00 95 1012.1
20181019040107 10 91 1.6 4.8 0.00 0.03 0.00 95 1012.0
20181019035146 10 91 0.0 3.2 0.00 0.03 0.00 95 1012.0
20181019034126 11 91 1.6 4.8 0.00 0.05 0.00 95 1012.1
20181019033106 10 91 0.0 1.6 0.00 0.05 0.00 95 1012.2
20181019032047 10 91 1.6 3.2 0.00 0.05 0.00 95 1012.2
20181019031027 10 91 0.0 1.6 0.00 0.05 0.00 95 1012.3
20181019030111 10 91 1.6 3.2 0.00 0.05 0.00 95 1012.5
20181019025053 10 91 0.0 0.0 0.00 0.05 0.00 95 1012.3
20181019024029 11 91 0.0 1.6 0.00 0.05 0.00 95 1012.5
20181019023008 10 91 0.0 0.0 0.00 0.05 0.00 95 1012.4
20181019021943 10 91 1.6 4.8 0.00 0.05 0.00 94 1012.6
20181019021019 11 13 0.0 4.8 0.00 0.05 0.00 95 1012.6
20181019020002 11 17 0.0 4.8 0.00 0.05 0.00 95 1012.6
20181019014940 11 17 0.0 0.0 0.00 0.05 0.00 94 1012.7
20181019013920 11 17 0.0 3.2 0.00 0.05 0.00 94 1012.7
20181019013000 11 17 0.0 1.6 0.00 0.05 0.00 94 1012.6
20181019011940 11 17 0.0 0.0 0.00 0.05 0.00 95 1012.6
20181019010916 11 17 0.0 3.2 0.00 0.08 0.00 94 1012.7
20181019005856 11 17 1.6 3.2 0.00 0.10 0.00 94 1013.0
20181019004828 11 17 1.6 4.8 0.00 0.10 0.00 94 1013.0
20181019003819 12 41 1.6 6.4 0.00 0.10 0.00 94 1013.1
20181019002905 12 320 1.6 6.4 0.00 0.10 0.00 94 1013.2
20181019001847 12 286 1.6 4.8 0.00 0.10 0.00 94 1013.1
20181019000811 11 182 0.0 3.2 0.00 0.10 0.00 94 1013.2
20181018235806 12 150 0.0 3.2 0.00 0.10 0.00 94 1013.3
20181018234857 12 150 0.0 3.2 0.00 0.10 0.00 94 1013.2
20181018233836 12 150 0.0 0.0 0.00 0.13 0.00 94 1013.2
20181018232800 12 150 0.0 3.2 0.00 0.13 0.00 94 1013.2
20181018231746 12 123 0.0 3.2 0.00 0.13 0.00 94 1013.4
20181018230734 12 123 1.6 6.4 0.00 0.13 0.00 93 1013.3
20181018225823 12 273 0.0 0.0 0.00 0.13 0.13 94 1013.3
20181018224729 12 273 0.0 0.0 0.00 0.15 0.13 93 1013.3
20181018223741 13 273 0.0 1.6 0.00 0.15 0.13 93 1013.4
20181018222818 13 273 0.0 3.2 0.00 0.15 0.13 93 1013.6
20181018221720 13 273 1.6 3.2 0.00 0.15 0.13 93 1013.6
20181018220713 13 273 0.0 3.2 0.00 0.15 0.13 92 1013.5
20181018215706 13 273 0.0 3.2 0.00 0.15 0.13 93 1013.4
20181018214656 13 273 0.0 0.0 0.00 0.15 0.13 92 1013.2
20181018213743 14 273 0.0 0.0 0.00 0.15 0.13 93 1013.2
20181018212642 14 273 0.0 1.6 0.00 0.15 0.13 92 1013.1
20181018211633 14 273 0.0 3.2 0.00 0.15 0.13 92 1013.1
20181018210618 14 273 0.0 3.2 0.00 0.15 0.13 92 1013.0
20181018205639 14 273 1.6 4.8 0.00 0.15 0.13 92 1012.9
20181018204621 14 273 0.0 4.8 0.00 0.15 0.13 91 1012.9
20181018203612 15 273 0.0 1.6 0.00 0.15 0.13 91 1012.8
20181018202611 15 273 1.6 3.2 0.00 0.15 0.13 91 1012.8
20181018201603 15 273 0.0 3.2 0.00 0.15 0.13 91 1012.7
20181018200610 15 273 1.6 4.8 0.00 0.15 0.13 91 1012.6
20181018195556 15 107 1.6 6.4 0.00 0.15 0.13 90 1012.7
20181018194551 15 102 1.6 6.4 0.00 0.15 0.13 89 1012.5
20181018193616 15 293 1.6 3.2 0.00 0.15 0.13 89 1012.5
20181018192559 16 293 3.2 6.4 0.00 0.15 0.13 89 1012.5
20181018191635 16 305 1.6 4.8 0.00 0.15 0.13 88 1012.3
20181018190539 16 305 3.2 4.8 0.00 0.15 0.13 87 1012.2
20181018185556 16 305 0.0 4.8 0.00 0.15 0.13 86 1012.0
20181018184537 16 305 1.6 3.2 0.00 0.15 0.13 86 1011.9
20181018183524 17 305 1.6 4.8 0.00 0.15 0.13 85 1012.0
20181018182518 17 306 0.0 1.6 0.00 0.15 0.13 83 1011.8
20181018181517 18 306 0.0 4.8 0.00 0.15 0.13 81 1011.5
20181018180527 18 306 3.2 8.0 0.00 0.15 0.13 80 1011.4
20181018175606 18 325 3.2 8.0 0.00 0.15 0.13 79 1011.3
20181018174515 19 313 6.4 11.3 0.00 0.15 0.13 78 1011.1
20181018173511 19 344 6.4 9.7 0.00 0.15 0.13 77 1011.0
20181018172519 20 333 4.8 11.3 0.00 0.15 0.13 76 1011.0
20181018171511 20 323 8.0 14.5 0.00 0.15 0.13 75 1010.9
20181018170511 20 317 9.7 14.5 0.00 0.15 0.13 73 1010.9
20181018165509 21 299 11.3 20.9 0.00 0.15 0.13 71 1010.9
20181018164509 21 294 11.3 19.3 0.00 0.15 0.13 69 1010.9
20181018163508 22 334 9.7 22.5 0.00 0.15 0.13 69 1010.8
20181018162507 22 308 8.0 16.1 0.00 0.15 0.13 68 1010.7
20181018161604 21 321 8.0 16.1 0.00 0.15 0.13 70 1010.9
20181018160551 22 324 12.9 25.7 0.00 0.15 0.13 68 1010.9
20181018155505 22 333 11.3 20.9 0.00 0.15 0.13 69 1010.9
20181018154505 22 342 9.7 19.3 0.00 0.15 0.13 69 1011.0
20181018153555 22 5 11.3 17.7 0.00 0.18 0.13 70 1010.9
20181018152507 22 287 11.3 20.9 0.00 0.18 0.13 71 1011.0
20181018151505 21 325 11.3 19.3 0.00 0.23 0.13 72 1011.0
20181018150503 21 304 11.3 20.9 0.00 0.33 0.13 73 1010.9
20181018145549 21 348 12.9 24.1 0.00 0.38 0.13 72 1011.0
20181018144504 21 324 8.0 20.9 0.00 0.43 0.13 70 1011.0
20181018143504 22 336 8.0 17.7 0.00 0.43 0.13 68 1010.9
20181018142554 22 355 11.3 19.3 0.00 0.43 0.13 67 1010.9
20181018141536 22 336 12.9 24.1 0.00 0.43 0.13 66 1010.8
20181018140504 22 343 9.7 19.3 0.00 0.43 0.13 67 1010.7
20181018135555 21 355 12.9 24.1 0.00 0.43 0.13 69 1010.7
20181018134539 21 25 11.3 24.1 0.00 0.43 0.13 68 1010.8
20181018133526 21 24 14.5 22.5 0.00 0.43 0.13 69 1011.0
20181018132455 21 348 11.3 22.5 0.00 0.43 0.13 71 1011.0
20181018131555 21 324 9.7 17.7 0.00 0.43 0.13 71 1011.1
20181018130536 20 0 9.7 19.3 0.00 0.43 0.13 73 1011.2
20181018125519 20 355 9.7 19.3 0.00 0.43 0.13 74 1011.4
20181018124452 20 13 11.3 20.9 0.00 0.43 0.13 75 1011.3
20181018123543 19 5 12.9 24.1 0.00 0.43 0.13 77 1011.5
20181018122528 19 355 11.3 20.9 0.00 0.43 0.13 78 1011.7
20181018121507 18 26 8.0 16.1 0.00 0.43 0.13 79 1011.8